Year,Month,Day,Hour,Minute,Value (Times are PST for temperature in C)
2017,03,15,00,00,8.80
2017,03,15,00,01,8.80
2017,03,15,00,02,8.80
2017,03,15,00,03,8.80
2017,03,15,00,04,8.80
2017,03,15,00,05,8.90
2017,03,15,00,06,8.90
2017,03,15,00,07,8.80
2017,03,15,00,08,8.80
2017,03,15,00,09,8.90
2017,03,15,00,10,8.80
2017,03,15,00,11,8.80
2017,03,15,00,12,8.80
2017,03,15,00,13,8.80
2017,03,15,00,14,8.80
2017,03,15,00,15,8.80
2017,03,15,00,16,8.80
2017,03,15,00,17,8.80
2017,03,15,00,18,8.80
2017,03,15,00,19,8.80
2017,03,15,00,20,8.80
2017,03,15,00,21,8.80
2017,03,15,00,22,8.80
2017,03,15,00,23,8.80
2017,03,15,00,24,8.80
2017,03,15,00,25,8.80
2017,03,15,00,26,8.80
2017,03,15,00,27,8.70
2017,03,15,00,28,8.70
2017,03,15,00,29,8.70
2017,03,15,00,30,8.70
2017,03,15,00,31,8.70
2017,03,15,00,32,8.70
2017,03,15,00,33,8.70
2017,03,15,00,34,8.70
2017,03,15,00,35,8.70
2017,03,15,00,36,8.70
2017,03,15,00,37,8.70
2017,03,15,00,38,8.70
2017,03,15,00,39,8.70
2017,03,15,00,40,8.70
2017,03,15,00,41,8.60
2017,03,15,00,42,8.60
2017,03,15,00,43,8.60
2017,03,15,00,44,8.60
2017,03,15,00,45,8.60
2017,03,15,00,46,8.60
2017,03,15,00,47,8.60
2017,03,15,00,48,8.60
2017,03,15,00,49,8.60
2017,03,15,00,50,8.60
2017,03,15,00,51,8.60
2017,03,15,00,52,8.60
2017,03,15,00,53,8.60
2017,03,15,00,54,8.50
2017,03,15,00,55,8.50
2017,03,15,00,56,8.50
2017,03,15,00,57,8.50
2017,03,15,00,58,8.50
2017,03,15,00,59,8.50
2017,03,15,01,00,8.50
2017,03,15,01,01,8.50
2017,03,15,01,02,8.40
2017,03,15,01,03,8.40
2017,03,15,01,04,8.40
2017,03,15,01,05,8.40
2017,03,15,01,06,8.40
2017,03,15,01,07,8.40
2017,03,15,01,08,8.40
2017,03,15,01,09,8.40
2017,03,15,01,10,8.40
2017,03,15,01,11,8.40
2017,03,15,01,12,8.40
2017,03,15,01,13,8.30
2017,03,15,01,14,8.30
2017,03,15,01,15,8.30
2017,03,15,01,16,8.30
2017,03,15,01,17,8.30
2017,03,15,01,18,8.30
2017,03,15,01,19,8.30
2017,03,15,01,20,8.20
2017,03,15,01,21,8.20
2017,03,15,01,22,8.20
2017,03,15,01,23,8.20
2017,03,15,01,24,8.20
2017,03,15,01,25,8.20
2017,03,15,01,26,8.20
2017,03,15,01,27,8.20
2017,03,15,01,28,8.20
2017,03,15,01,29,8.20
2017,03,15,01,30,8.20
2017,03,15,01,31,8.20
2017,03,15,01,32,8.20
2017,03,15,01,33,8.20
2017,03,15,01,34,8.20
2017,03,15,01,35,8.20
2017,03,15,01,36,8.10
2017,03,15,01,37,8.10
2017,03,15,01,38,8.10
2017,03,15,01,39,8.10
2017,03,15,01,40,8.10
2017,03,15,01,41,8.10
2017,03,15,01,42,8.10
2017,03,15,01,43,8.10
2017,03,15,01,44,8.00
2017,03,15,01,45,8.00
2017,03,15,01,46,8.00
2017,03,15,01,47,8.00
2017,03,15,01,48,8.00
2017,03,15,01,49,8.00
2017,03,15,01,50,8.00
2017,03,15,01,51,7.90
2017,03,15,01,52,7.90
2017,03,15,01,53,7.90
2017,03,15,01,54,7.90
2017,03,15,01,55,7.90
2017,03,15,01,56,7.90
2017,03,15,01,57,7.90
2017,03,15,01,58,7.90
2017,03,15,01,59,7.90
2017,03,15,02,00,7.90
2017,03,15,02,01,7.80
2017,03,15,02,02,7.80
2017,03,15,02,03,7.80
2017,03,15,02,04,7.80
2017,03,15,02,05,7.80
2017,03,15,02,06,7.80
2017,03,15,02,07,7.80
2017,03,15,02,08,7.80
2017,03,15,02,09,7.80
2017,03,15,02,10,7.80
2017,03,15,02,11,7.80
2017,03,15,02,12,7.80
2017,03,15,02,13,7.80
2017,03,15,02,14,7.80
2017,03,15,02,15,7.80
2017,03,15,02,16,7.80
2017,03,15,02,17,7.80
2017,03,15,02,18,7.70
2017,03,15,02,19,7.70
2017,03,15,02,20,7.70
2017,03,15,02,21,7.70
2017,03,15,02,22,7.70
2017,03,15,02,23,7.70
2017,03,15,02,24,7.70
2017,03,15,02,25,7.70
2017,03,15,02,26,7.70
2017,03,15,02,27,7.70
2017,03,15,02,28,7.70
2017,03,15,02,29,7.80
2017,03,15,02,30,7.80
2017,03,15,02,31,7.80
2017,03,15,02,32,7.80
2017,03,15,02,33,7.80
2017,03,15,02,34,7.80
2017,03,15,02,35,7.80
2017,03,15,02,36,7.80
2017,03,15,02,37,7.80
2017,03,15,02,38,7.80
2017,03,15,02,39,7.80
2017,03,15,02,40,7.70
2017,03,15,02,41,7.70
2017,03,15,02,42,7.70
2017,03,15,02,43,7.70
2017,03,15,02,44,7.70
2017,03,15,02,45,7.70
2017,03,15,02,46,7.60
2017,03,15,02,47,7.60
2017,03,15,02,48,7.60
2017,03,15,02,49,7.60
2017,03,15,02,50,7.60
2017,03,15,02,51,7.50
2017,03,15,02,52,7.50
2017,03,15,02,53,7.50
2017,03,15,02,54,7.40
2017,03,15,02,55,7.40
2017,03,15,02,56,7.40
2017,03,15,02,57,7.30
2017,03,15,02,58,7.30
2017,03,15,02,59,7.30
2017,03,15,03,00,7.30
2017,03,15,03,01,7.30
2017,03,15,03,02,7.30
2017,03,15,03,03,7.30
2017,03,15,03,04,7.20
2017,03,15,03,05,7.20
2017,03,15,03,06,7.20
2017,03,15,03,07,7.20
2017,03,15,03,08,7.20
2017,03,15,03,09,7.20
2017,03,15,03,10,7.20
2017,03,15,03,11,7.20
2017,03,15,03,12,7.20
2017,03,15,03,13,7.20
2017,03,15,03,14,7.20
2017,03,15,03,15,7.10
2017,03,15,03,16,7.10
2017,03,15,03,17,7.10
2017,03,15,03,18,7.10
2017,03,15,03,19,7.10
2017,03,15,03,20,7.10
2017,03,15,03,21,7.00
2017,03,15,03,22,7.00
2017,03,15,03,23,7.00
2017,03,15,03,24,7.00
2017,03,15,03,25,6.90
2017,03,15,03,26,6.90
2017,03,15,03,27,6.90
2017,03,15,03,28,6.90
2017,03,15,03,29,7.00
2017,03,15,03,30,7.00
2017,03,15,03,31,7.00
2017,03,15,03,32,7.00
2017,03,15,03,33,7.00
2017,03,15,03,34,7.10
2017,03,15,03,35,7.10
2017,03,15,03,36,7.10
2017,03,15,03,37,7.10
2017,03,15,03,38,7.10
2017,03,15,03,39,7.10
2017,03,15,03,40,7.10
2017,03,15,03,41,7.10
2017,03,15,03,42,7.10
2017,03,15,03,43,7.10
2017,03,15,03,44,7.20
2017,03,15,03,45,7.20
2017,03,15,03,46,7.20
2017,03,15,03,47,7.30
2017,03,15,03,48,7.30
2017,03,15,03,49,7.30
2017,03,15,03,50,7.40
2017,03,15,03,51,7.40
2017,03,15,03,52,7.40
2017,03,15,03,53,7.40
2017,03,15,03,54,7.40
2017,03,15,03,55,7.50
2017,03,15,03,56,7.50
2017,03,15,03,57,7.50
2017,03,15,03,58,7.50
2017,03,15,03,59,7.50
2017,03,15,04,00,7.50
2017,03,15,04,01,7.60
2017,03,15,04,02,7.60
2017,03,15,04,03,7.60
2017,03,15,04,04,7.60
2017,03,15,04,05,7.50
2017,03,15,04,06,7.50
2017,03,15,04,07,7.50
2017,03,15,04,08,7.50
2017,03,15,04,09,7.50
2017,03,15,04,10,7.40
2017,03,15,04,11,7.40
2017,03,15,04,12,7.30
2017,03,15,04,13,7.30
2017,03,15,04,14,7.30
2017,03,15,04,15,7.20
2017,03,15,04,16,7.20
2017,03,15,04,17,7.20
2017,03,15,04,18,7.10
2017,03,15,04,19,7.10
2017,03,15,04,20,7.00
2017,03,15,04,21,7.00
2017,03,15,04,22,6.90
2017,03,15,04,23,6.90
2017,03,15,04,24,6.90
2017,03,15,04,25,6.90
2017,03,15,04,26,6.80
2017,03,15,04,27,6.80
2017,03,15,04,28,6.80
2017,03,15,04,29,6.80
2017,03,15,04,30,6.80
2017,03,15,04,31,6.80
2017,03,15,04,32,6.70
2017,03,15,04,33,6.70
2017,03,15,04,34,6.70
2017,03,15,04,35,6.70
2017,03,15,04,36,6.70
2017,03,15,04,37,6.70
2017,03,15,04,38,6.70
2017,03,15,04,39,6.60
2017,03,15,04,40,6.60
2017,03,15,04,41,6.60
2017,03,15,04,42,6.60
2017,03,15,04,43,6.60
2017,03,15,04,44,6.60
2017,03,15,04,45,6.50
2017,03,15,04,46,6.50
2017,03,15,04,47,6.50
2017,03,15,04,48,6.50
2017,03,15,04,49,6.50
2017,03,15,04,50,6.40
2017,03,15,04,51,6.40
2017,03,15,04,52,6.40
2017,03,15,04,53,6.40
2017,03,15,04,54,6.40
2017,03,15,04,55,6.40
2017,03,15,04,56,6.40
2017,03,15,04,57,6.40
2017,03,15,04,58,6.30
2017,03,15,04,59,6.30
2017,03,15,05,00,6.30
2017,03,15,05,01,6.30
2017,03,15,05,02,6.30
2017,03,15,05,03,6.30
2017,03,15,05,04,6.30
2017,03,15,05,05,6.30
2017,03,15,05,06,6.30
2017,03,15,05,07,6.30
2017,03,15,05,08,6.30
2017,03,15,05,09,6.30
2017,03,15,05,10,6.30
2017,03,15,05,11,6.30
2017,03,15,05,12,6.20
2017,03,15,05,13,6.20
2017,03,15,05,14,6.20
2017,03,15,05,15,6.20
2017,03,15,05,16,6.20
2017,03,15,05,17,6.20
2017,03,15,05,18,6.20
2017,03,15,05,19,6.20
2017,03,15,05,20,6.20
2017,03,15,05,21,6.20
2017,03,15,05,22,6.20
2017,03,15,05,23,6.20
2017,03,15,05,24,6.20
2017,03,15,05,25,6.20
2017,03,15,05,26,6.20
2017,03,15,05,27,6.20
2017,03,15,05,28,6.20
2017,03,15,05,29,6.20
2017,03,15,05,30,6.20
2017,03,15,05,31,6.20
2017,03,15,05,32,6.20
2017,03,15,05,33,6.20
2017,03,15,05,34,6.20
2017,03,15,05,35,6.20
2017,03,15,05,36,6.20
2017,03,15,05,37,6.20
2017,03,15,05,38,6.20
2017,03,15,05,39,6.20
2017,03,15,05,40,6.20
2017,03,15,05,41,6.20
2017,03,15,05,42,6.20
2017,03,15,05,43,6.10
2017,03,15,05,44,6.10
2017,03,15,05,45,6.10
2017,03,15,05,46,6.10
2017,03,15,05,47,6.10
2017,03,15,05,48,6.10
2017,03,15,05,49,6.10
2017,03,15,05,50,6.10
2017,03,15,05,51,6.10
2017,03,15,05,52,6.10
2017,03,15,05,53,6.10
2017,03,15,05,54,6.10
2017,03,15,05,55,6.10
2017,03,15,05,56,6.10
2017,03,15,05,57,6.10
2017,03,15,05,58,6.10
2017,03,15,05,59,6.00
2017,03,15,06,00,6.00
2017,03,15,06,01,6.00
2017,03,15,06,02,6.00
2017,03,15,06,03,6.00
2017,03,15,06,04,6.00
2017,03,15,06,05,6.00
2017,03,15,06,06,6.00
2017,03,15,06,07,6.00
2017,03,15,06,08,6.00
2017,03,15,06,09,6.00
2017,03,15,06,10,5.90
2017,03,15,06,11,5.90
2017,03,15,06,12,5.90
2017,03,15,06,13,5.90
2017,03,15,06,14,5.90
2017,03,15,06,15,5.90
2017,03,15,06,16,5.90
2017,03,15,06,17,5.90
2017,03,15,06,18,5.90
2017,03,15,06,19,5.90
2017,03,15,06,20,5.90
2017,03,15,06,21,5.80
2017,03,15,06,22,5.80
2017,03,15,06,23,5.80
2017,03,15,06,24,5.80
2017,03,15,06,25,5.80
2017,03,15,06,26,5.80
2017,03,15,06,27,5.80
2017,03,15,06,28,5.80
2017,03,15,06,29,5.80
2017,03,15,06,30,5.80
2017,03,15,06,31,5.80
2017,03,15,06,32,5.80
2017,03,15,06,33,5.80
2017,03,15,06,34,5.80
2017,03,15,06,35,5.80
2017,03,15,06,36,5.80
2017,03,15,06,37,5.70
2017,03,15,06,38,5.70
2017,03,15,06,39,5.70
2017,03,15,06,40,5.70
2017,03,15,06,41,5.70
2017,03,15,06,42,5.70
2017,03,15,06,43,5.70
2017,03,15,06,44,5.70
2017,03,15,06,45,5.70
2017,03,15,06,46,5.80
2017,03,15,06,47,5.80
2017,03,15,06,48,5.80
2017,03,15,06,49,5.80
2017,03,15,06,50,5.80
2017,03,15,06,51,5.80
2017,03,15,06,52,5.80
2017,03,15,06,53,5.80
2017,03,15,06,54,5.80
2017,03,15,06,55,5.80
2017,03,15,06,56,5.80
2017,03,15,06,57,5.70
2017,03,15,06,58,5.70
2017,03,15,06,59,5.70
2017,03,15,07,00,5.70
2017,03,15,07,01,5.70
2017,03,15,07,02,5.70
2017,03,15,07,03,5.70
2017,03,15,07,04,5.70
2017,03,15,07,05,5.70
2017,03,15,07,06,5.70
2017,03,15,07,07,5.70
2017,03,15,07,08,5.70
2017,03,15,07,09,5.70
2017,03,15,07,10,5.70
2017,03,15,07,11,5.60
2017,03,15,07,12,5.60
2017,03,15,07,13,5.60
2017,03,15,07,14,5.60
2017,03,15,07,15,5.60
2017,03,15,07,16,5.60
2017,03,15,07,17,5.60
2017,03,15,07,18,5.60
2017,03,15,07,19,5.60
2017,03,15,07,20,5.50
2017,03,15,07,21,5.50
2017,03,15,07,22,5.50
2017,03,15,07,23,5.50
2017,03,15,07,24,5.50
2017,03,15,07,25,5.50
2017,03,15,07,26,5.50
2017,03,15,07,27,5.50
2017,03,15,07,28,5.40
2017,03,15,07,29,5.40
2017,03,15,07,30,5.40
2017,03,15,07,31,5.40
2017,03,15,07,32,5.40
2017,03,15,07,33,5.40
2017,03,15,07,34,5.40
2017,03,15,07,35,5.40
2017,03,15,07,36,5.40
2017,03,15,07,37,5.40
2017,03,15,07,38,5.40
2017,03,15,07,39,5.40
2017,03,15,07,40,5.40
2017,03,15,07,41,5.40
2017,03,15,07,42,5.40
2017,03,15,07,43,5.40
2017,03,15,07,44,5.40
2017,03,15,07,45,5.40
2017,03,15,07,46,5.40
2017,03,15,07,47,5.40
2017,03,15,07,48,5.40
2017,03,15,07,49,5.40
2017,03,15,07,50,5.40
2017,03,15,07,51,5.40
2017,03,15,07,52,5.40
2017,03,15,07,53,5.40
2017,03,15,07,54,5.40
2017,03,15,07,55,5.40
2017,03,15,07,56,5.40
2017,03,15,07,57,5.40
2017,03,15,07,58,5.40
2017,03,15,07,59,5.40
2017,03,15,08,00,5.40
2017,03,15,08,01,5.40
2017,03,15,08,02,5.40
2017,03,15,08,03,5.40
2017,03,15,08,04,5.40
2017,03,15,08,05,5.40
2017,03,15,08,06,5.40
2017,03,15,08,07,5.50
2017,03,15,08,08,5.50
2017,03,15,08,09,5.50
2017,03,15,08,10,5.50
2017,03,15,08,11,5.60
2017,03,15,08,12,5.60
2017,03,15,08,13,5.60
2017,03,15,08,14,5.60
2017,03,15,08,15,5.60
2017,03,15,08,16,5.70
2017,03,15,08,17,5.70
2017,03,15,08,18,5.70
2017,03,15,08,19,5.70
2017,03,15,08,20,5.70
2017,03,15,08,21,5.70
2017,03,15,08,22,5.80
2017,03,15,08,23,5.80
2017,03,15,08,24,5.80
2017,03,15,08,25,5.80
2017,03,15,08,26,5.80
2017,03,15,08,27,5.80
2017,03,15,08,28,5.80
2017,03,15,08,29,5.80
2017,03,15,08,30,5.80
2017,03,15,08,31,5.80
2017,03,15,08,32,5.80
2017,03,15,08,33,5.80
2017,03,15,08,34,5.80
2017,03,15,08,35,5.80
2017,03,15,08,36,5.80
2017,03,15,08,37,5.80
2017,03,15,08,38,5.80
2017,03,15,08,39,5.80
2017,03,15,08,40,5.80
2017,03,15,08,41,5.80
2017,03,15,08,42,5.80
2017,03,15,08,43,5.80
2017,03,15,08,44,5.80
2017,03,15,08,45,5.80
2017,03,15,08,46,5.80
2017,03,15,08,47,5.80
2017,03,15,08,48,5.80
2017,03,15,08,49,5.80
2017,03,15,08,50,5.90
2017,03,15,08,51,5.90
2017,03,15,08,52,5.90
2017,03,15,08,53,5.90
2017,03,15,08,54,5.90
2017,03,15,08,55,5.90
2017,03,15,08,56,5.90
2017,03,15,08,57,5.90
2017,03,15,08,58,6.00
2017,03,15,08,59,6.00
2017,03,15,09,00,6.00
2017,03,15,09,01,6.00
2017,03,15,09,02,6.00
2017,03,15,09,03,6.00
2017,03,15,09,04,6.00
2017,03,15,09,05,6.00
2017,03,15,09,06,6.00
2017,03,15,09,07,6.00
2017,03,15,09,08,6.00
2017,03,15,09,09,6.00
2017,03,15,09,10,6.00
2017,03,15,09,11,6.00
2017,03,15,09,12,6.10
2017,03,15,09,13,6.10
2017,03,15,09,14,6.10
2017,03,15,09,15,6.10
2017,03,15,09,16,6.10
2017,03,15,09,17,6.10
2017,03,15,09,18,6.10
2017,03,15,09,19,6.10
2017,03,15,09,20,6.20
2017,03,15,09,21,6.20
2017,03,15,09,22,6.20
2017,03,15,09,23,6.20
2017,03,15,09,24,6.20
2017,03,15,09,25,6.20
2017,03,15,09,26,6.20
2017,03,15,09,27,6.30
2017,03,15,09,28,6.30
2017,03,15,09,29,6.30
2017,03,15,09,30,6.30
2017,03,15,09,31,6.30
2017,03,15,09,32,6.30
2017,03,15,09,33,6.40
2017,03,15,09,34,6.40
2017,03,15,09,35,6.40
2017,03,15,09,36,6.40
2017,03,15,09,37,6.40
2017,03,15,09,38,6.50
2017,03,15,09,39,6.50
2017,03,15,09,40,6.50
2017,03,15,09,41,6.60
2017,03,15,09,42,6.60
2017,03,15,09,43,6.70
2017,03,15,09,44,6.70
2017,03,15,09,45,6.70
2017,03,15,09,46,6.70
2017,03,15,09,47,6.70
2017,03,15,09,48,6.80
2017,03,15,09,49,6.80
2017,03,15,09,50,6.80
2017,03,15,09,51,6.80
2017,03,15,09,52,6.80
2017,03,15,09,53,6.80
2017,03,15,09,54,6.80
2017,03,15,09,55,6.80
2017,03,15,09,56,6.90
2017,03,15,09,57,6.90
2017,03,15,09,58,6.90
2017,03,15,09,59,6.90
2017,03,15,10,00,6.90
2017,03,15,10,01,6.90
2017,03,15,10,02,6.90
2017,03,15,10,03,7.00
2017,03,15,10,04,7.00
2017,03,15,10,05,7.00
2017,03,15,10,06,7.00
2017,03,15,10,07,7.10
2017,03,15,10,08,7.10
2017,03,15,10,09,7.10
2017,03,15,10,10,7.10
2017,03,15,10,11,7.20
2017,03,15,10,12,7.20
2017,03,15,10,13,7.20
2017,03,15,10,14,7.20
2017,03,15,10,15,7.20
2017,03,15,10,16,7.30
2017,03,15,10,17,7.30
2017,03,15,10,18,7.30
2017,03,15,10,19,7.30
2017,03,15,10,20,7.30
2017,03,15,10,21,7.30
2017,03,15,10,22,7.30
2017,03,15,10,23,7.40
2017,03,15,10,24,7.40
2017,03,15,10,25,7.40
2017,03,15,10,26,7.40
2017,03,15,10,27,7.40
2017,03,15,10,28,7.40
2017,03,15,10,29,7.50
2017,03,15,10,30,7.50
2017,03,15,10,31,7.50
2017,03,15,10,32,7.50
2017,03,15,10,33,7.50
2017,03,15,10,34,7.50
2017,03,15,10,35,7.50
2017,03,15,10,36,7.50
2017,03,15,10,37,7.50
2017,03,15,10,38,7.60
2017,03,15,10,39,7.60
2017,03,15,10,40,7.60
2017,03,15,10,41,7.60
2017,03,15,10,42,7.60
2017,03,15,10,43,7.60
2017,03,15,10,44,7.60
2017,03,15,10,45,7.60
2017,03,15,10,46,7.70
2017,03,15,10,47,7.70
2017,03,15,10,48,7.70
2017,03,15,10,49,7.70
2017,03,15,10,50,7.70
2017,03,15,10,51,7.70
2017,03,15,10,52,7.70
2017,03,15,10,53,7.70
2017,03,15,10,54,7.80
2017,03,15,10,55,7.80
2017,03,15,10,56,7.80
2017,03,15,10,57,7.80
2017,03,15,10,58,7.80
2017,03,15,10,59,7.80
2017,03,15,11,00,7.80
2017,03,15,11,01,7.90
2017,03,15,11,02,7.90
2017,03,15,11,03,7.90
2017,03,15,11,04,7.90
2017,03,15,11,05,7.90
2017,03,15,11,06,8.00
2017,03,15,11,07,8.00
2017,03,15,11,08,8.00
2017,03,15,11,09,8.10
2017,03,15,11,10,8.10
2017,03,15,11,11,8.10
2017,03,15,11,12,8.20
2017,03,15,11,13,8.20
2017,03,15,11,14,8.20
2017,03,15,11,15,8.30
2017,03,15,11,16,8.30
2017,03,15,11,17,8.30
2017,03,15,11,18,8.30
2017,03,15,11,19,8.40
2017,03,15,11,20,8.40
2017,03,15,11,21,8.40
2017,03,15,11,22,8.40
2017,03,15,11,23,8.40
2017,03,15,11,24,8.50
2017,03,15,11,25,8.50
2017,03,15,11,26,8.50
2017,03,15,11,27,8.50
2017,03,15,11,28,8.50
2017,03,15,11,29,8.60
2017,03,15,11,30,8.60
2017,03,15,11,31,8.60
2017,03,15,11,32,8.60
2017,03,15,11,33,8.60
2017,03,15,11,34,8.60
2017,03,15,11,35,8.60
2017,03,15,11,36,8.60
2017,03,15,11,37,8.60
2017,03,15,11,38,8.60
2017,03,15,11,39,8.60
2017,03,15,11,40,8.60
2017,03,15,11,41,8.60
2017,03,15,11,42,8.60
2017,03,15,11,43,8.60
2017,03,15,11,44,8.60
2017,03,15,11,45,8.70
2017,03,15,11,46,8.70
2017,03,15,11,47,8.70
2017,03,15,11,48,8.70
2017,03,15,11,49,8.70
2017,03,15,11,50,8.70
2017,03,15,11,51,8.70
2017,03,15,11,52,8.70
2017,03,15,11,53,8.70
2017,03,15,11,54,8.80
2017,03,15,11,55,8.80
2017,03,15,11,56,8.80
2017,03,15,11,57,8.80
2017,03,15,11,58,8.90
2017,03,15,11,59,8.90
2017,03,15,12,00,8.90
2017,03,15,12,01,8.90
2017,03,15,12,02,8.90
2017,03,15,12,03,8.90
2017,03,15,12,04,9.00
2017,03,15,12,05,9.00
2017,03,15,12,06,9.10
2017,03,15,12,07,9.10
2017,03,15,12,08,9.20
2017,03,15,12,09,9.20
2017,03,15,12,10,9.20
2017,03,15,12,11,9.20
2017,03,15,12,12,9.20
2017,03,15,12,13,9.20
2017,03,15,12,14,9.20
2017,03,15,12,15,9.20
2017,03,15,12,16,9.20
2017,03,15,12,17,9.20
2017,03,15,12,18,9.20
2017,03,15,12,19,9.20
2017,03,15,12,20,9.20
2017,03,15,12,21,9.20
2017,03,15,12,22,9.20
2017,03,15,12,23,9.20
2017,03,15,12,24,9.20
2017,03,15,12,25,9.20
2017,03,15,12,26,9.20
2017,03,15,12,27,9.20
2017,03,15,12,28,9.20
2017,03,15,12,29,9.20
2017,03,15,12,30,9.20
2017,03,15,12,31,9.20
2017,03,15,12,32,9.20
2017,03,15,12,33,9.20
2017,03,15,12,34,9.20
2017,03,15,12,35,9.20
2017,03,15,12,36,9.20
2017,03,15,12,37,9.20
2017,03,15,12,38,9.10
2017,03,15,12,39,9.10
2017,03,15,12,40,9.10
2017,03,15,12,41,9.10
2017,03,15,12,42,9.10
2017,03,15,12,43,9.10
2017,03,15,12,44,9.10
2017,03,15,12,45,9.10
2017,03,15,12,46,9.10
2017,03,15,12,47,9.10
2017,03,15,12,48,9.10
2017,03,15,12,49,9.10
2017,03,15,12,50,9.10
2017,03,15,12,51,9.10
2017,03,15,12,52,9.10
2017,03,15,12,53,9.10
2017,03,15,12,54,9.10
2017,03,15,12,55,9.10
2017,03,15,12,56,9.10
2017,03,15,12,57,9.10
2017,03,15,12,58,9.10
2017,03,15,12,59,9.10
2017,03,15,13,00,9.20
2017,03,15,13,01,9.20
2017,03,15,13,02,9.20
2017,03,15,13,03,9.20
2017,03,15,13,04,9.20
2017,03,15,13,05,9.20
2017,03,15,13,06,9.20
2017,03,15,13,07,9.10
2017,03,15,13,08,9.10
2017,03,15,13,09,9.10
2017,03,15,13,10,9.10
2017,03,15,13,11,9.10
2017,03,15,13,12,9.10
2017,03,15,13,13,9.10
2017,03,15,13,14,9.10
2017,03,15,13,15,9.10
2017,03,15,13,16,9.10
2017,03,15,13,17,9.10
2017,03,15,13,18,9.10
2017,03,15,13,19,9.10
2017,03,15,13,20,9.10
2017,03,15,13,21,9.20
2017,03,15,13,22,9.20
2017,03,15,13,23,9.20
2017,03,15,13,24,9.20
2017,03,15,13,25,9.20
2017,03,15,13,26,9.20
2017,03,15,13,27,9.20
2017,03,15,13,28,9.20
2017,03,15,13,29,9.30
2017,03,15,13,30,9.30
2017,03,15,13,31,9.30
2017,03,15,13,32,9.30
2017,03,15,13,33,9.30
2017,03,15,13,34,9.30
2017,03,15,13,35,9.40
2017,03,15,13,36,9.40
2017,03,15,13,37,9.40
2017,03,15,13,38,9.40
2017,03,15,13,39,9.50
2017,03,15,13,40,9.50
2017,03,15,13,41,9.50
2017,03,15,13,42,9.50
2017,03,15,13,43,9.50
2017,03,15,13,44,9.50
2017,03,15,13,45,9.60
2017,03,15,13,46,9.60
2017,03,15,13,47,9.60
2017,03,15,13,48,9.70
2017,03,15,13,49,9.70
2017,03,15,13,50,9.70
2017,03,15,13,51,9.80
2017,03,15,13,52,9.80
2017,03,15,13,53,9.80
2017,03,15,13,54,9.80
2017,03,15,13,55,9.90
2017,03,15,13,56,9.90
2017,03,15,13,57,10.00
2017,03,15,13,58,10.00
2017,03,15,13,59,10.10
2017,03,15,14,00,10.10
2017,03,15,14,01,10.10
2017,03,15,14,02,10.10
2017,03,15,14,03,10.10
2017,03,15,14,04,10.20
2017,03,15,14,05,10.20
2017,03,15,14,06,10.20
2017,03,15,14,07,10.20
2017,03,15,14,08,10.20
2017,03,15,14,09,10.20
2017,03,15,14,10,10.20
2017,03,15,14,11,10.20
2017,03,15,14,12,10.20
2017,03,15,14,13,10.20
2017,03,15,14,14,10.30
2017,03,15,14,15,10.30
2017,03,15,14,16,10.30
2017,03,15,14,17,10.30
2017,03,15,14,18,10.30
2017,03,15,14,19,10.30
2017,03,15,14,20,10.30
2017,03,15,14,21,10.30
2017,03,15,14,22,10.30
2017,03,15,14,23,10.30
2017,03,15,14,24,10.40
2017,03,15,14,25,10.40
2017,03,15,14,26,10.40
2017,03,15,14,27,10.40
2017,03,15,14,28,10.40
2017,03,15,14,29,10.30
2017,03,15,14,30,10.30
2017,03,15,14,31,10.30
2017,03,15,14,32,10.30
2017,03,15,14,33,10.30
2017,03,15,14,34,10.30
2017,03,15,14,35,10.30
2017,03,15,14,36,10.30
2017,03,15,14,37,10.30
2017,03,15,14,38,10.30
2017,03,15,14,39,10.30
2017,03,15,14,40,10.20
2017,03,15,14,41,10.20
2017,03,15,14,42,10.20
2017,03,15,14,43,10.20
2017,03,15,14,44,10.20
2017,03,15,14,45,10.20
2017,03,15,14,46,10.20
2017,03,15,14,47,10.20
2017,03,15,14,48,10.20
2017,03,15,14,49,10.20
2017,03,15,14,50,10.20
2017,03,15,14,51,10.20
2017,03,15,14,52,10.20
2017,03,15,14,53,10.20
2017,03,15,14,54,10.20
2017,03,15,14,55,10.30
2017,03,15,14,56,10.30
2017,03,15,14,57,10.30
2017,03,15,14,58,10.30
2017,03,15,14,59,10.30
2017,03,15,15,00,10.30
2017,03,15,15,01,10.30
2017,03,15,15,02,10.30
2017,03,15,15,03,10.40
2017,03,15,15,04,10.40
2017,03,15,15,05,10.40
2017,03,15,15,06,10.40
2017,03,15,15,07,10.40
2017,03,15,15,08,10.40
2017,03,15,15,09,10.40
2017,03,15,15,10,10.40
2017,03,15,15,11,10.40
2017,03,15,15,12,10.40
2017,03,15,15,13,10.40
2017,03,15,15,14,10.40
2017,03,15,15,15,10.50
2017,03,15,15,16,10.50
2017,03,15,15,17,10.60
2017,03,15,15,18,10.60
2017,03,15,15,19,10.60
2017,03,15,15,20,10.60
2017,03,15,15,21,10.60
2017,03,15,15,22,10.70
2017,03,15,15,23,10.70
2017,03,15,15,24,10.70
2017,03,15,15,25,10.70
2017,03,15,15,26,10.70
2017,03,15,15,27,10.70
2017,03,15,15,28,10.70
2017,03,15,15,29,10.70
2017,03,15,15,30,10.80
2017,03,15,15,31,10.70
2017,03,15,15,32,10.70
2017,03,15,15,33,10.70
2017,03,15,15,34,10.70
2017,03,15,15,35,10.70
2017,03,15,15,36,10.70
2017,03,15,15,37,10.70
2017,03,15,15,38,10.60
2017,03,15,15,39,10.60
2017,03,15,15,40,10.60
2017,03,15,15,41,10.60
2017,03,15,15,42,10.60
2017,03,15,15,43,10.60
2017,03,15,15,44,10.60
2017,03,15,15,45,10.60
2017,03,15,15,46,10.50
2017,03,15,15,47,10.50
2017,03,15,15,48,10.50
2017,03,15,15,49,10.50
2017,03,15,15,50,10.50
2017,03,15,15,51,10.50
2017,03,15,15,52,10.50
2017,03,15,15,53,10.50
2017,03,15,15,54,10.50
2017,03,15,15,55,10.50
2017,03,15,15,56,10.50
2017,03,15,15,57,10.50
2017,03,15,15,58,10.50
2017,03,15,15,59,10.50
2017,03,15,16,00,10.50
2017,03,15,16,01,10.50
2017,03,15,16,02,10.50
2017,03,15,16,03,10.50
2017,03,15,16,04,10.50
2017,03,15,16,05,10.50
2017,03,15,16,06,10.50
2017,03,15,16,07,10.50
2017,03,15,16,08,10.50
2017,03,15,16,09,10.50
2017,03,15,16,10,10.50
2017,03,15,16,11,10.50
2017,03,15,16,12,10.50
2017,03,15,16,13,10.40
2017,03,15,16,14,10.40
2017,03,15,16,15,10.40
2017,03,15,16,16,10.40
2017,03,15,16,17,10.40
2017,03,15,16,18,10.40
2017,03,15,16,19,10.30
2017,03,15,16,20,10.30
2017,03,15,16,21,10.30
2017,03,15,16,22,10.30
2017,03,15,16,23,10.30
2017,03,15,16,24,10.30
2017,03,15,16,25,10.20
2017,03,15,16,26,10.20
2017,03,15,16,27,10.20
2017,03,15,16,28,10.20
2017,03,15,16,29,10.20
2017,03,15,16,30,10.20
2017,03,15,16,31,10.10
2017,03,15,16,32,10.10
2017,03,15,16,33,10.10
2017,03,15,16,34,10.10
2017,03,15,16,35,10.10
2017,03,15,16,36,10.10
2017,03,15,16,37,10.10
2017,03,15,16,38,10.10
2017,03,15,16,39,10.10
2017,03,15,16,40,10.10
2017,03,15,16,41,10.10
2017,03,15,16,42,10.10
2017,03,15,16,43,10.10
2017,03,15,16,44,10.10
2017,03,15,16,45,10.10
2017,03,15,16,46,10.00
2017,03,15,16,47,10.00
2017,03,15,16,48,10.00
2017,03,15,16,49,10.00
2017,03,15,16,50,10.00
2017,03,15,16,51,10.00
2017,03,15,16,52,9.90
2017,03,15,16,53,9.90
2017,03,15,16,54,9.90
2017,03,15,16,55,9.90
2017,03,15,16,56,9.90
2017,03,15,16,57,9.80
2017,03,15,16,58,9.80
2017,03,15,16,59,9.80
2017,03,15,17,00,9.80
2017,03,15,17,01,9.80
2017,03,15,17,02,9.70
2017,03,15,17,03,9.70
2017,03,15,17,04,9.70
2017,03,15,17,05,9.70
2017,03,15,17,06,9.70
2017,03,15,17,07,9.70
2017,03,15,17,08,9.60
2017,03,15,17,09,9.60
2017,03,15,17,10,9.60
2017,03,15,17,11,9.60
2017,03,15,17,12,9.60
2017,03,15,17,13,9.60
2017,03,15,17,14,9.50
2017,03,15,17,15,9.50
2017,03,15,17,16,9.50
2017,03,15,17,17,9.40
2017,03,15,17,18,9.40
2017,03,15,17,19,9.40
2017,03,15,17,20,9.40
2017,03,15,17,21,9.40
2017,03,15,17,22,9.40
2017,03,15,17,23,9.30
2017,03,15,17,24,9.30
2017,03,15,17,25,9.30
2017,03,15,17,26,9.30
2017,03,15,17,27,9.30
2017,03,15,17,28,9.30
2017,03,15,17,29,9.20
2017,03,15,17,30,9.20
2017,03,15,17,31,9.20
2017,03,15,17,32,9.20
2017,03,15,17,33,9.20
2017,03,15,17,34,9.10
2017,03,15,17,35,9.10
2017,03,15,17,36,9.10
2017,03,15,17,37,9.10
2017,03,15,17,38,9.10
2017,03,15,17,39,9.00
2017,03,15,17,40,9.00
2017,03,15,17,41,9.00
2017,03,15,17,42,9.00
2017,03,15,17,43,8.90
2017,03,15,17,44,8.90
2017,03,15,17,45,8.90
2017,03,15,17,46,8.90
2017,03,15,17,47,8.90
2017,03,15,17,48,8.90
2017,03,15,17,49,8.90
2017,03,15,17,50,8.90
2017,03,15,17,51,8.80
2017,03,15,17,52,8.80
2017,03,15,17,53,8.80
2017,03,15,17,54,8.80
2017,03,15,17,55,8.80
2017,03,15,17,56,8.80
2017,03,15,17,57,8.80
2017,03,15,17,58,8.80